SCP
0 0 0 0 0 0 0 0 0 0 0 0 0 0 0 0 0 0 0 0 0 0 0 0 0 0 0 0 0 0 0 0 0 0 0 0 0 0
0 0 0 0 0 0 0 0 0 0 0 0 0 0 0 0 0 0 0 0 0 0 0 0 0 0 0 0 0 0 0 0 0 0 0 0 0 0
0 0 0 0 0 0 0 0 0 0 0 0 0 0 0 0 0 0 0 0 0 0 0 0 0 0 0 0 0 0 0 0 0 -0 0 0 -0 0
0 0 0 0 0 0 0 0 0 0 0 0 0 0 0 0 0 0 0 0 0 0 0 0 0 0 0 0 0 0 0 -0 0 0 -0 -0 -0 -0
0 0 0 0 0 0 0 0 0 0 0 0 0 0 0 0 0 0 0 0 0 0 0 0 0 0 0 0 0 0 0 0 0 -0 0 -0 0 0
0 0 0 0 0 0 0 0 0 0 0 0 0 0 0 0 0 0 0 0 0 0 0 0 0 0 0 0 0 0 0 0 0 0 0 0 0 0
0 0 0 0 0 0 0 0 0 0 0 0 0 0 0 0 0 0 0 0 0 0 0 0 0 0 0 0 0 0 0 0 0 0 0 0 0 0
0 0 0 0 0 0 0 0 0 0 0 0 0 0 0 0 0 0 0 0 0 0 0 0 0 0 0 0 0 0 0 0 0 0 0 0 0 0
0 0 0 0 0 0 0 0 0 0 0 0 0 0 0 0 0 0 0 0 0 0 0 0 0 0 0 0 0 0 0 0 0 0 0 0 -0 0
0 0 0 0 0 0 0 0 0 0 0 0 0 0 0 0 0 0 0 0 0 0 0 0 0 0 0 0 0 0 0 0 0 0 0 0 0 0
0 0 0 0 0 0 0 0 0 0 0 0 0 0 0 0 0 0 0 0 0 0 0 0 0 0 0 0 0 0 0 0 0 -0 0 0 0 0
0 0 0 0 0 0 0 0 0 0 0 0 0 0 0 0 0 0 0 0 0 0 0 0 0 0 0 0 0 0 0 0 0 0 0 0 0 0
0 0 0 0 0 0 0 0 0 0 0 0 0 0 0 0 0 0 0 0 0 0 0 0 0 0 0 0 0 0 0 0 0 0 0 0 0 0
-0 0 0 0 0 0 0 0 0 0 0 0 0 0 0 0 0 0 0 0 0 0 0 0 0 0 0 0 0 0 0 0 0 0 0 0 0 0
0 0 0 0 0 0 0 0 0 0 0 0 0 0 0 0 0 0 0 0 0 0 0 0 0 0 0 0 0 0 0 0 0 0 0 0 0 0
0 0 0 0 0 0 0 0 0 0 0 0 0 0 0 0 0 0 0 0 0 0 0 0 0 0 0 0 0 0 0 0 0 0 0 0 0 0
-0 0 0 0 0 0 0 0 0 0 0 0 0 0 0 0 0 0 0 0 0 0 0 0 0 0 0 0 0 0 0 0 0 0 0 0 0 0
-0 -0 -0 0 0 0 0 0 0 0 0 0 0 0 0 0 0 0 0 0 0 0 0 0 0 0 0 0 0 0 0 0 0 0 0 0 0 0
-0 -0 -0 0 0 0 0 0 0 0 0 0 0 0 0 0 0 0 0 0 0 0 0 0 0 0 0 0 0 0 0 0 0 0 0 0 0 0
-0 0 -0 0 0 0 0 0 0 0 0 0 0 0 0 0 0 0 0 0 0 0 0 0 0 0 0 0 0 0 0 0 0 0 0 0 0 0
0 0 -0 -0 0 0 0 0 0 0 0 0 0 0 0 0 0 0 0 0 0 0 0 0 0 0 0 0 0 0 0 0 0 0 0 0 0 0
-0 -0 0 0 0 0 0 0 0 0 0 0 0 0 0 0 0 0 0 0 0 0 0 0 0 0 0 0 0 0 0 0 0 0 0 0 0 0
-0 0 0 0 0 0 0 0 0 0 0 0 0 0 0 0 0 0 0 0 0 0 0 0 0 0 0 0 0 0 0 0 0 0 0 0 0 0
Wind_Speed_500mb
46 45 44 43 42 40 38 36 42 38 40 21 15 12 2 16 4 11 13 16 12 40 40 43 45 27 61 70 82 81 83 92 85 80 76 69 63 63
44 45 41 41 42 40 36 38 38 38 40 36 29 33 32 19 16 14 19 17 16 21 20 33 23 25 44 31 30 89 86 99 83 78 79 75 71 69
50 42 53 48 44 44 40 39 42 40 48 51 47 25 22 27 20 10 11 18 20 17 17 14 12 16 14 23 25 74 82 94 77 76 83 77 73 78
45 42 45 43 41 41 42 42 43 41 35 40 41 40 25 20 23 16 10 12 19 19 15 14 15 18 23 24 32 51 44 75 87 94 85 72 76 82
39 35 37 39 43 38 37 40 41 41 40 36 43 37 22 13 14 19 12 8 9 17 22 20 21 23 23 27 32 38 56 58 90 89 66 82 70 86
37 37 38 39 40 37 33 33 36 39 38 40 43 46 35 23 15 4 1 8 9 10 18 26 27 23 20 22 29 35 46 56 59 70 80 87 88 96
45 43 40 38 37 35 34 33 29 31 34 35 38 37 38 30 21 25 19 13 16 13 19 25 25 22 16 19 28 33 43 49 59 79 105 98 105 105
46 45 42 39 38 40 39 39 39 37 36 34 35 33 27 27 27 27 28 18 20 23 19 19 15 14 13 20 26 30 36 40 52 105 99 105 115 93
47 45 45 43 37 35 35 35 38 41 42 39 36 38 33 36 15 29 31 39 20 25 24 27 19 10 8 7 10 17 33 52 76 101 104 114 83 68
45 46 48 45 42 40 38 37 39 41 43 47 44 37 38 51 28 12 27 41 35 41 33 47 35 39 34 31 21 21 54 89 96 107 90 67 60 43
43 43 44 47 40 33 35 39 40 38 39 44 54 48 38 40 47 35 21 29 50 50 44 53 52 53 48 52 50 59 72 75 71 64 58 49 46 29
39 35 31 34 32 29 33 35 41 40 37 38 43 58 50 43 35 41 33 33 49 46 53 47 56 48 36 42 46 47 50 52 50 47 45 34 30 32
40 38 37 35 35 36 39 45 45 34 35 39 39 46 49 50 54 41 37 36 48 35 52 48 65 49 34 50 43 44 48 50 42 35 33 35 34 29
47 45 42 39 38 36 37 39 40 39 40 37 43 42 48 49 51 53 50 39 36 44 34 54 54 59 51 62 53 45 40 39 38 38 38 37 31 24
35 36 35 37 37 39 42 42 42 43 46 48 43 44 45 42 45 49 54 50 40 41 32 60 51 56 48 51 63 63 54 43 38 35 32 28 25 24
35 34 30 29 35 47 46 46 43 48 48 48 45 37 32 35 40 42 54 48 40 42 42 52 54 62 45 42 46 57 58 46 50 41 35 31 29 26
45 45 46 45 39 41 50 46 44 47 50 50 44 42 39 39 40 41 46 56 51 50 48 56 54 51 53 47 55 59 60 48 50 48 40 34 27 23
45 47 49 49 42 39 46 48 50 47 49 51 50 47 46 44 41 43 46 56 52 52 49 57 64 54 58 47 45 55 56 49 43 45 38 33 31 29
45 48 49 50 45 38 41 44 45 50 46 54 51 48 47 41 43 46 51 57 53 54 55 59 60 60 62 58 47 47 53 52 46 47 40 34 31 29
25 30 36 39 42 43 45 45 46 47 56 55 58 51 51 43 42 47 53 59 55 57 60 62 62 62 63 65 55 53 46 44 47 49 47 42 37 32
25 23 25 31 36 40 45 50 52 53 54 58 61 61 56 52 46 46 49 54 59 60 64 63 61 60 59 59 61 65 56 41 33 33 44 41 38 32
25 19 16 20 26 33 37 42 47 48 52 54 61 59 59 54 48 48 48 56 59 61 64 62 58 53 48 57 67 73 67 57 48 40 40 36 38 30
25 18 11 9 18 27 35 41 46 51 52 56 62 63 61 55 49 48 46 51 59 62 62 60 52 49 50 57 68 72 70 65 61 55 48 34 27 20
Wind_Direction_500mb
288 286 282 277 274 272 267 258 269 284 299 301 300 292 316 348 333 231 239 248 219 229 232 233 226 202 201 207 218 208 206 202 196 200 198 194 195 194
290 294 289 276 271 269 265 254 258 265 273 271 266 291 290 314 336 242 223 228 243 246 214 231 223 201 227 239 239 207 212 199 195 200 199 195 194 197
294 279 278 281 275 268 264 256 252 254 265 273 274 280 329 305 297 305 243 228 227 234 256 227 206 191 213 197 198 203 216 196 198 206 205 197 198 196
290 287 279 285 278 271 264 258 253 245 261 273 276 265 300 310 276 291 230 209 225 225 230 233 205 200 189 185 195 194 207 203 216 205 206 202 197 199
290 290 288 281 280 276 268 263 255 251 251 259 262 254 259 285 273 268 230 211 207 202 197 194 191 198 194 200 201 204 197 212 218 197 216 202 197 198
284 287 286 282 280 278 273 267 260 254 249 250 255 254 249 250 269 219 294 208 229 196 191 193 186 179 193 204 207 209 210 211 199 213 209 198 195 201
286 286 282 281 279 271 271 273 267 259 253 246 253 258 250 252 252 256 246 243 194 211 177 177 180 180 197 223 228 220 218 213 204 217 202 192 196 198
277 275 280 279 272 264 259 254 257 253 248 243 250 249 247 241 242 245 224 216 170 197 199 174 180 167 207 217 217 225 213 205 208 203 190 195 193 189
278 276 276 274 275 275 264 253 250 246 244 240 245 249 239 218 208 228 221 214 205 167 184 138 147 135 114 89 151 152 176 184 195 188 188 184 180 181
274 270 272 268 262 262 261 255 252 246 241 232 236 253 240 220 225 203 210 205 208 176 171 137 141 130 128 123 141 160 178 180 190 185 165 164 160 161
278 273 269 267 268 262 257 253 254 251 249 238 232 237 239 226 236 230 218 201 177 171 158 148 143 136 136 127 124 135 143 145 146 147 159 168 162 166
290 284 277 270 270 260 251 252 252 251 248 248 240 232 236 234 229 240 224 208 198 181 169 160 155 147 120 132 144 149 149 147 145 146 153 163 177 186
286 282 273 265 259 256 255 255 256 256 246 244 242 233 228 228 224 210 213 215 207 193 181 184 173 164 152 149 150 158 163 162 169 170 175 177 172 172
279 280 279 275 266 252 248 245 247 249 245 237 238 234 229 224 222 221 219 212 209 220 218 202 191 185 166 161 158 168 172 174 176 171 167 170 169 174
273 272 275 273 266 260 252 245 240 237 241 237 235 236 235 232 224 222 217 217 209 210 216 201 204 194 197 186 179 176 172 174 174 176 171 176 173 184
284 276 285 281 275 253 248 241 238 232 229 234 233 233 226 213 209 215 214 213 215 206 208 208 196 198 195 200 197 190 185 178 182 181 178 183 176 173
293 286 285 279 279 252 241 236 239 229 227 228 229 224 215 211 210 211 214 214 209 197 189 197 199 195 198 195 191 195 190 189 188 185 186 182 176 180
282 275 270 263 269 259 240 234 231 227 220 221 222 221 216 212 210 209 210 212 205 203 198 194 194 187 193 182 194 195 194 193 188 189 187 183 183 186
273 270 266 258 256 248 245 235 227 221 218 214 217 216 214 206 208 206 202 205 205 200 194 190 189 189 183 180 183 194 199 193 189 183 176 180 187 181
288 273 257 249 248 242 230 233 227 220 220 217 216 214 214 212 210 205 204 204 201 197 192 190 191 193 198 189 177 178 186 199 190 182 171 176 178 182
317 294 269 253 244 238 229 224 222 220 217 213 210 210 211 213 211 208 203 203 203 198 194 192 194 199 200 192 172 161 163 166 170 180 179 178 179 181
333 315 286 252 233 222 216 212 209 206 209 207 204 203 204 208 209 204 203 197 195 196 194 189 190 193 193 190 173 166 157 156 165 169 177 184 182 188
343 336 319 259 217 206 201 199 198 196 203 204 202 198 200 204 205 203 200 196 192 190 187 178 176 178 180 178 174 163 160 165 168 169 172 174 182 184
Wind_Speed_850mb
46 45 44 43 42 40 38 36 42 38 40 21 15 12 2 16 4 11 13 16 12 40 40 43 45 27 61 70 82 81 83 92 85 80 76 69 63 63
44 45 41 41 42 40 36 38 38 38 40 36 29 33 32 19 16 14 19 17 16 21 20 33 23 25 44 31 30 89 86 99 83 78 79 75 71 69
50 42 53 48 44 44 40 39 42 40 48 51 47 25 22 27 20 10 11 18 20 17 17 14 12 16 14 23 25 74 82 94 77 76 83 77 73 78
45 42 45 43 41 41 42 42 43 41 35 40 41 40 25 20 23 16 10 12 19 19 15 14 15 18 23 24 32 51 44 75 87 94 85 72 76 82
39 35 37 39 43 38 37 40 41 41 40 36 43 37 22 13 14 19 12 8 9 17 22 20 21 23 23 27 32 38 56 58 90 89 66 82 70 86
37 37 38 39 40 37 33 33 36 39 38 40 43 46 35 23 15 4 1 8 9 10 18 26 27 23 20 22 29 35 46 56 59 70 80 87 88 96
45 43 40 38 37 35 34 33 29 31 34 35 38 37 38 30 21 25 19 13 16 13 19 25 25 22 16 19 28 33 43 49 59 79 105 98 105 105
46 45 42 39 38 40 39 39 39 37 36 34 35 33 27 27 27 27 28 18 20 23 19 19 15 14 13 20 26 30 36 40 52 105 99 105 115 93
47 45 45 43 37 35 35 35 38 41 42 39 36 38 33 36 15 29 31 39 20 25 24 27 19 10 8 7 10 17 33 52 76 101 104 114 83 68
45 46 48 45 42 40 38 37 39 41 43 47 44 37 38 51 28 12 27 41 35 41 33 47 35 39 34 31 21 21 54 89 96 107 90 67 60 43
43 43 44 47 40 33 35 39 40 38 39 44 54 48 38 40 47 35 21 29 50 50 44 53 52 53 48 52 50 59 72 75 71 64 58 49 46 29
39 35 31 34 32 29 33 35 41 40 37 38 43 58 50 43 35 41 33 33 49 46 53 47 56 48 36 42 46 47 50 52 50 47 45 34 30 32
40 38 37 35 35 36 39 45 45 34 35 39 39 46 49 50 54 41 37 36 48 35 52 48 65 49 34 50 43 44 48 50 42 35 33 35 34 29
47 45 42 39 38 36 37 39 40 39 40 37 43 42 48 49 51 53 50 39 36 44 34 54 54 59 51 62 53 45 40 39 38 38 38 37 31 24
35 36 35 37 37 39 42 42 42 43 46 48 43 44 45 42 45 49 54 50 40 41 32 60 51 56 48 51 63 63 54 43 38 35 32 28 25 24
35 34 30 29 35 47 46 46 43 48 48 48 45 37 32 35 40 42 54 48 40 42 42 52 54 62 45 42 46 57 58 46 50 41 35 31 29 26
45 45 46 45 39 41 50 46 44 47 50 50 44 42 39 39 40 41 46 56 51 50 48 56 54 51 53 47 55 59 60 48 50 48 40 34 27 23
45 47 49 49 42 39 46 48 50 47 49 51 50 47 46 44 41 43 46 56 52 52 49 57 64 54 58 47 45 55 56 49 43 45 38 33 31 29
45 48 49 50 45 38 41 44 45 50 46 54 51 48 47 41 43 46 51 57 53 54 55 59 60 60 62 58 47 47 53 52 46 47 40 34 31 29
25 30 36 39 42 43 45 45 46 47 56 55 58 51 51 43 42 47 53 59 55 57 60 62 62 62 63 65 55 53 46 44 47 49 47 42 37 32
25 23 25 31 36 40 45 50 52 53 54 58 61 61 56 52 46 46 49 54 59 60 64 63 61 60 59 59 61 65 56 41 33 33 44 41 38 32
25 19 16 20 26 33 37 42 47 48 52 54 61 59 59 54 48 48 48 56 59 61 64 62 58 53 48 57 67 73 67 57 48 40 40 36 38 30
25 18 11 9 18 27 35 41 46 51 52 56 62 63 61 55 49 48 46 51 59 62 62 60 52 49 50 57 68 72 70 65 61 55 48 34 27 20
Wind_Direction_850mb
288 286 282 277 274 272 267 258 269 284 299 301 300 292 316 348 333 231 239 248 219 229 232 233 226 202 201 207 218 208 206 202 196 200 198 194 195 194
290 294 289 276 271 269 265 254 258 265 273 271 266 291 290 314 336 242 223 228 243 246 214 231 223 201 227 239 239 207 212 199 195 200 199 195 194 197
294 279 278 281 275 268 264 256 252 254 265 273 274 280 329 305 297 305 243 228 227 234 256 227 206 191 213 197 198 203 216 196 198 206 205 197 198 196
290 287 279 285 278 271 264 258 253 245 261 273 276 265 300 310 276 291 230 209 225 225 230 233 205 200 189 185 195 194 207 203 216 205 206 202 197 199
290 290 288 281 280 276 268 263 255 251 251 259 262 254 259 285 273 268 230 211 207 202 197 194 191 198 194 200 201 204 197 212 218 197 216 202 197 198
284 287 286 282 280 278 273 267 260 254 249 250 255 254 249 250 269 219 294 208 229 196 191 193 186 179 193 204 207 209 210 211 199 213 209 198 195 201
286 286 282 281 279 271 271 273 267 259 253 246 253 258 250 252 252 256 246 243 194 211 177 177 180 180 197 223 228 220 218 213 204 217 202 192 196 198
277 275 280 279 272 264 259 254 257 253 248 243 250 249 247 241 242 245 224 216 170 197 199 174 180 167 207 217 217 225 213 205 208 203 190 195 193 189
278 276 276 274 275 275 264 253 250 246 244 240 245 249 239 218 208 228 221 214 205 167 184 138 147 135 114 89 151 152 176 184 195 188 188 184 180 181
274 270 272 268 262 262 261 255 252 246 241 232 236 253 240 220 225 203 210 205 208 176 171 137 141 130 128 123 141 160 178 180 190 185 165 164 160 161
278 273 269 267 268 262 257 253 254 251 249 238 232 237 239 226 236 230 218 201 177 171 158 148 143 136 136 127 124 135 143 145 146 147 159 168 162 166
290 284 277 270 270 260 251 252 252 251 248 248 240 232 236 234 229 240 224 208 198 181 169 160 155 147 120 132 144 149 149 147 145 146 153 163 177 186
286 282 273 265 259 256 255 255 256 256 246 244 242 233 228 228 224 210 213 215 207 193 181 184 173 164 152 149 150 158 163 162 169 170 175 177 172 172
279 280 279 275 266 252 248 245 247 249 245 237 238 234 229 224 222 221 219 212 209 220 218 202 191 185 166 161 158 168 172 174 176 171 167 170 169 174
273 272 275 273 266 260 252 245 240 237 241 237 235 236 235 232 224 222 217 217 209 210 216 201 204 194 197 186 179 176 172 174 174 176 171 176 173 184
284 276 285 281 275 253 248 241 238 232 229 234 233 233 226 213 209 215 214 213 215 206 208 208 196 198 195 200 197 190 185 178 182 181 178 183 176 173
293 286 285 279 279 252 241 236 239 229 227 228 229 224 215 211 210 211 214 214 209 197 189 197 199 195 198 195 191 195 190 189 188 185 186 182 176 180
282 275 270 263 269 259 240 234 231 227 220 221 222 221 216 212 210 209 210 212 205 203 198 194 194 187 193 182 194 195 194 193 188 189 187 183 183 186
273 270 266 258 256 248 245 235 227 221 218 214 217 216 214 206 208 206 202 205 205 200 194 190 189 189 183 180 183 194 199 193 189 183 176 180 187 181
288 273 257 249 248 242 230 233 227 220 220 217 216 214 214 212 210 205 204 204 201 197 192 190 191 193 198 189 177 178 186 199 190 182 171 176 178 182
317 294 269 253 244 238 229 224 222 220 217 213 210 210 211 213 211 208 203 203 203 198 194 192 194 199 200 192 172 161 163 166 170 180 179 178 179 181
333 315 286 252 233 222 216 212 209 206 209 207 204 203 204 208 209 204 203 197 195 196 194 189 190 193 193 190 173 166 157 156 165 169 177 184 182 188
343 336 319 259 217 206 201 199 198 196 203 204 202 198 200 204 205 203 200 196 192 190 187 178 176 178 180 178 174 163 160 165 168 169 172 174 182 184